Location: Beaver Brook Station
(42.3793°N, 71.2203°W)
Time: 01:32:57
(UTC+00:00)

GEOS 3 Rocket - Pass Details

Date: 29 October 2020
Orbit: 770 x 850 km, 115.0° (Epoch: 05 December)

Event Time Altitude Azimuth Distance (km) Brightness Sun altitude
Exits shadow 23:20:43 31° 67° (ENE) 1,420 4.4 -18.9°
Maximum altitude 23:21:49 35° 42° (NE) 1,341 4.4 -19.1°
Drops below altitude 10° 23:26:38 10° 339° (NNW) 2,475 6.4 -20.0°
Sets 23:29:09 0° 330° (NNW) 3,418 7.3 -20.4°
